This is the latest recevied weather packets stored in our database for station/object S54L-12. If no packets are shown the sender has not sent any weather packets the latest 10 day(s).
| Time | Temp. | Humidity | Pressure | Rain* | Wind** | Luminosity | Snow |
|---|---|---|---|---|---|---|---|
| 1777461185 | 7.22° C | 89% | 925.8 hPa | - | - | - | - |
| 1777460285 | 7.78° C | 88% | 925.9 hPa | - | - | - | - |
| 1777459385 | 7.78° C | 88% | 925.7 hPa | - | - | - | - |
| 1777458485 | 8.33° C | 86% | 925.6 hPa | - | - | - | - |
| 1777457585 | 8.33° C | 87% | 925.7 hPa | - | - | - | - |
| 1777456685 | 8.89° C | 87% | 925.7 hPa | - | - | - | - |
| 1777455785 | 8.89° C | 87% | 925.8 hPa | - | - | - | - |
| 1777454884 | 9.44° C | 87% | 925.7 hPa | - | - | - | - |
| 1777453986 | 9.44° C | 85% | 925.6 hPa | - | - | - | - |
| 1777453086 | 9.44° C | 86% | 925.5 hPa | - | - | - | - |
| 1777452186 | 8.89° C | 86% | 925.6 hPa | - | - | - | - |
| 1777451286 | 8.89° C | 88% | 925.5 hPa | - | - | - | - |
| 1777450386 | 8.89° C | 87% | 925.3 hPa | - | - | - | - |
| 1777449486 | 8.89° C | 88% | 925.4 hPa | - | - | - | - |
| 1777448586 | 8.89° C | 87% | 925.2 hPa | - | - | - | - |
| 1777447686 | 9.44° C | 86% | 924.8 hPa | - | - | - | - |
| 1777446786 | 9.44° C | 85% | 924.9 hPa | - | - | - | - |
| 1777445886 | 9.44° C | 85% | 924.9 hPa | - | - | - | - |
| 1777444986 | 8.89° C | 87% | 924.8 hPa | - | - | - | - |
| 1777444086 | 8.33° C | 87% | 924.7 hPa | - | - | - | - |
| 1777443186 | 8.33° C | 85% | 924.6 hPa | - | - | - | - |
| 1777442286 | 8.89° C | 81% | 924.6 hPa | - | - | - | - |
| 1777441386 | 8.89° C | 81% | 924.5 hPa | - | - | - | - |
| 1777440486 | 8.89° C | 80% | 924.3 hPa | - | - | - | - |
| 1777439585 | 8.89° C | 80% | 924.3 hPa | - | - | - | - |
* Rain since midnight (hover to see other rain measurements)
** Current wind speed in m/s (hover to see current wind gust speed)